Location: Karcze
(52.0945°N, 22.4786°E)
Time: 22:12:50
(UTC+00:00)

Transit 4A - Pass Details

Date: 28 July 2021
Orbit: 871 x 974 km, 66.8° (Epoch: 18 September)

Event Time Altitude Azimuth Distance (km) Brightness Sun altitude
Exits shadow 22:11:55 21° 127° (SE) 1,888 9.1 -18.9°
Maximum altitude 22:13:14 22° 108° (ESE) 1,807 9.2 -19.0°
Drops below altitude 10° 22:17:37 10° 59° (ENE) 2,529 10.5 -19.0°
Sets 22:20:35 0° 46° (NE) 3,469 11.5 -19.1°
